Vorticity
4 4 4 5 5 6 5 6 6 6 7 8 7 6 3 5 7 6 8 3 3 4 6 5 5 6 6 4 2 3 4 4 4 3 4 4 4 4 4 6 7 7 3 5 6 3 8
3 3 3 4 6 4 5 4 6 7 7 8 8 7 6 6 5 5 6 5 5 4 4 7 8 5 4 6 3 5 5 6 8 7 6 5 4 6 8 10 9 6 7 8 3 9 3
4 3 2 3 4 7 5 4 3 5 7 6 7 9 6 5 9 5 6 6 7 5 4 5 7 8 5 5 0 2 1 2 4 6 7 5 4 8 9 6 3 8 7 4 6 3 2
3 4 3 2 2 3 7 6 4 2 3 6 7 5 5 5 5 7 7 7 4 6 6 6 5 6 8 6 1 -2 -2 -1 2 6 5 4 4 8 4 5 11 9 4 7 2 4 6
3 3 4 4 3 3 2 5 8 5 2 1 3 5 3 5 7 7 6 9 6 3 2 3 5 9 6 8 8 6 5 5 5 6 5 5 6 7 5 7 8 5 6 3 4 4 4
2 2 4 5 4 4 4 3 3 6 7 4 3 1 1 1 6 7 5 7 6 5 2 1 1 4 7 5 8 10 8 8 8 4 6 7 8 6 7 6 6 4 3 3 3 5 5
4 4 2 3 5 4 4 4 4 3 4 8 7 5 5 5 4 4 9 6 10 9 7 4 3 6 5 7 8 4 8 8 5 4 7 8 8 5 4 2 5 5 2 3 4 5 5
8 3 4 3 3 5 4 4 5 5 4 3 5 7 7 6 7 6 6 5 8 6 7 8 6 4 7 8 6 6 8 7 4 4 9 10 6 3 1 9 8 6 3 5 6 4 5
6 7 6 4 4 4 4 5 5 4 6 5 5 4 4 5 5 7 7 6 5 7 6 5 9 10 7 8 7 7 8 4 3 10 11 8 3 -1 12 9 6 5 6 6 5 7 4
4 3 7 6 6 4 5 4 5 4 4 5 7 5 4 4 4 4 4 6 6 6 5 5 8 11 7 7 7 8 6 5 10 11 4 0 1 11 9 7 5 6 7 6 7 5 4
1 3 6 6 6 6 5 5 5 5 5 6 5 5 6 5 5 6 5 5 6 4 6 10 8 6 8 6 5 6 5 6 8 6 8 5 8 7 7 4 6 7 8 8 6 4 5
10 16 -4 10 10 7 3 6 6 6 6 4 4 4 5 4 5 6 6 5 5 1 4 5 8 7 7 9 3 8 6 7 4 6 6 6 6 6 7 9 8 8 6 5 5 3 3
14 8 18 4 -5 9 8 5 10 6 6 4 4 2 4 4 6 4 4 5 5 4 8 8 7 5 4 6 8 7 8 4 2 6 8 7 5 8 8 7 8 8 4 3 4 5 4
4 8 16 4 -15 2 10 1 4 -2 4 -1 -2 -4 1 -7 7 6 2 4 8 5 5 6 5 5 5 9 6 6 6 4 5 7 7 5 8 8 8 8 6 5 4 4 5 3 3
4 4 5 24 33 13 9 10 0 -2 -11 11 -1 3 4 8 6 7 7 8 6 4 2 6 8 7 4 8 7 6 7 7 7 7 7 9 6 5 7 8 4 5 4 4 4 2 5
8 4 5 6 2 0 0 8 11 4 9 -8 9 1 29 5 6 4 3 4 6 6 3 5 5 6 6 7 6 5 7 6 7 8 7 8 7 7 8 5 5 6 4 6 4 4 3
3 9 4 5 4 20 26 5 1 2 5 4 6 11 11 8 0 -5 6 5 6 7 5 6 7 7 3 6 5 5 6 7 7 7 6 7 6 7 6 5 5 5 5 4 5 4 6
6 2 12 4 3 3 7 27 12 12 14 19 10 14 1 0 -2 12 2 10 -0 10 7 7 6 5 7 6 7 4 6 6 6 6 6 5 6 5 5 6 4 5 5 5 7 5 6
2 3 0 17 2 5 5 7 10 11 12 15 3 11 8 16 14 13 14 7 9 9 9 6 1 0 5 7 8 7 5 6 5 5 6 5 6 5 6 4 4 6 5 7 5 5 14
9 7 4 -1 8 6 6 6 6 8 8 9 12 6 12 9 5 13 20 15 9 0 7 1 6 10 10 4 5 6 6 7 6 6 6 5 6 6 7 6 5 7 6 7 5 8 4
15 18 11 5 4 5 8 7 6 9 6 7 9 11 12 6 8 3 15 17 9 10 4 11 7 11 7 6 7 6 6 6 5 6 7 6 6 6 6 6 5 6 8 6 7 6 3
20 14 14 7 4 -1 8 12 5 7 5 6 6 14 9 5 13 7 8 19 8 12 18 8 6 5 6 11 8 9 5 5 2 6 7 7 7 7 5 3 1 4 10 10 1 16 8
24 17 11 14 9 -2 2 7 17 4 6 7 11 8 7 8 7 9 13 8 6 2 1 2 2 5 3 -2 4 6 7 7 6 7 8 7 6 7 7 5 5 6 5 10 7 10 7
45 26 11 13 7 -3 3 8 13 9 6 5 5 6 6 11 6 6 7 10 -1 2 15 2 3 4 9 14 9 4 2 4 3 5 7 3 7 7 3 5 10 12 8 7 6 8 9
27 42 17 11 22 6 -8 3 7 17 6 6 6 8 6 5 11 9 9 9 11 8 11 18 11 7 5 9 10 10 12 12 10 11 9 5 13 11 7 2 2 11 10 10 6 9 5
21 27 42 10 12 8 7 2 4 9 12 8 3 7 8 6 7 7 9 8 5 13 -0 -2 -4 -1 3 3 0 2 6 2 0 9 13 11 4 1 2 6 6 1 8 9 8 9 4
28 23 31 27 9 26 2 2 0 10 18 15 5 5 9 6 5 9 5 4 9 1 6 9 7 15 11 6 8 14 8 9 8 5 7 7 4 2 6 12 12 7 8 9 10 6 2
30 28 30 44 10 22 -1 -14 2 5 -5 15 12 2 8 9 4 8 8 6 8 6 8 6 7 8 9 9 7 5 3 -1 1 5 7 2 -0 2 4 3 8 12 9 11 3 12 15
21 19 24 35 32 5 28 -12 -4 16 -1 16 10 17 5 9 4 12 7 3 6 7 6 6 9 4 7 7 2 3 5 6 10 0 9 15 13 17 20 16 12 9 12 14 12 7 7
Height
5870 5871 5871 5871 5871 5871 5872 5872 5872 5872 5872 5871 5871 5871 5870 5869 5869 5869 5868 5867 5867 5867 5866 5866 5866 5865 5865 5865 5863 5863 5862 5861 5861 5860 5859 5859 5858 5858 5857 5856 5855 5854 5854 5853 5852 5851 5849
5868 5869 5869 5870 5870 5870 5870 5871 5871 5871 5871 5871 5870 5870 5870 5869 5869 5869 5868 5867 5867 5867 5867 5867 5867 5867 5866 5866 5864 5863 5862 5861 5860 5860 5859 5859 5858 5857 5856 5855 5854 5854 5853 5852 5850 5849 5848
5865 5866 5867 5867 5868 5869 5869 5869 5869 5870 5870 5870 5869 5869 5869 5868 5868 5868 5869 5868 5867 5867 5867 5867 5866 5866 5866 5866 5864 5863 5862 5861 5860 5860 5859 5858 5857 5856 5855 5854 5853 5851 5851 5849 5848 5847 5845
5861 5862 5864 5864 5865 5867 5867 5867 5867 5868 5868 5868 5868 5868 5868 5867 5867 5867 5867 5867 5866 5866 5866 5866 5865 5865 5864 5864 5863 5863 5862 5861 5860 5858 5857 5856 5855 5854 5853 5852 5850 5849 5848 5847 5846 5844 5843
5856 5858 5860 5861 5862 5863 5864 5864 5864 5865 5865 5866 5866 5866 5866 5866 5865 5865 5864 5865 5865 5864 5864 5864 5864 5864 5863 5862 5861 5860 5860 5859 5858 5857 5855 5854 5853 5851 5850 5849 5848 5847 5846 5845 5842 5841 5838
5851 5853 5854 5856 5857 5858 5859 5860 5861 5861 5862 5862 5862 5862 5862 5863 5863 5862 5862 5862 5862 5862 5861 5861 5861 5862 5861 5860 5859 5858 5857 5856 5854 5854 5853 5852 5850 5849 5848 5846 5845 5844 5843 5841 5838 5836 5833
5845 5846 5848 5849 5851 5853 5854 5855 5856 5857 5857 5858 5858 5859 5859 5859 5859 5859 5859 5858 5860 5859 5858 5858 5858 5857 5857 5856 5855 5854 5853 5853 5853 5852 5850 5849 5848 5846 5845 5843 5842 5840 5838 5836 5834 5831 5828
5839 5841 5841 5842 5844 5846 5848 5849 5850 5851 5852 5853 5854 5854 5855 5854 5856 5855 5855 5854 5854 5854 5853 5853 5853 5853 5853 5852 5852 5851 5850 5850 5848 5848 5847 5846 5844 5843 5841 5839 5838 5836 5834 5831 5829 5825 5823
5830 5832 5834 5836 5837 5838 5840 5842 5844 5844 5846 5846 5848 5849 5849 5850 5849 5851 5850 5851 5849 5849 5850 5849 5849 5848 5848 5848 5848 5847 5847 5846 5845 5843 5842 5842 5841 5839 5837 5834 5833 5831 5829 5827 5824 5821 5818
5820 5823 5825 5827 5829 5830 5832 5834 5835 5838 5839 5840 5841 5843 5844 5844 5845 5845 5845 5845 5845 5845 5845 5846 5844 5845 5844 5843 5843 5843 5842 5842 5841 5839 5838 5837 5836 5834 5832 5830 5829 5826 5824 5822 5819 5817 5813
5808 5811 5815 5818 5820 5822 5823 5826 5828 5830 5831 5833 5834 5836 5837 5838 5839 5839 5840 5839 5839 5841 5840 5840 5839 5839 5839 5840 5838 5837 5837 5837 5836 5835 5835 5833 5831 5829 5827 5826 5823 5821 5818 5816 5813 5812 5809
5794 5797 5801 5806 5810 5812 5815 5816 5819 5820 5823 5825 5826 5828 5829 5831 5832 5833 5833 5833 5834 5835 5834 5835 5833 5834 5834 5834 5833 5832 5832 5832 5831 5830 5829 5827 5825 5824 5821 5819 5817 5815 5812 5810 5807 5805 5803
5781 5783 5787 5791 5796 5800 5804 5807 5810 5811 5813 5815 5817 5819 5821 5822 5824 5825 5825 5826 5828 5828 5829 5829 5829 5828 5828 5828 5828 5827 5826 5826 5826 5825 5823 5821 5819 5817 5816 5813 5812 5809 5806 5803 5801 5798 5795
5768 5771 5774 5777 5781 5786 5790 5794 5797 5801 5803 5805 5808 5810 5812 5814 5816 5816 5817 5818 5820 5822 5821 5821 5821 5822 5822 5822 5822 5821 5821 5820 5819 5818 5816 5815 5814 5812 5810 5808 5806 5803 5801 5797 5790 5788 5787
5753 5757 5759 5762 5766 5771 5775 5779 5783 5787 5790 5794 5797 5800 5802 5804 5806 5806 5808 5809 5812 5813 5814 5814 5814 5814 5815 5816 5816 5815 5814 5814 5813 5812 5811 5809 5808 5805 5803 5801 5800 5797 5794 5790 5785 5781 5776
5736 5740 5743 5747 5751 5755 5760 5765 5769 5773 5776 5780 5784 5787 5789 5792 5794 5795 5797 5801 5804 5804 5806 5806 5807 5808 5809 5809 5809 5808 5808 5808 5806 5805 5804 5803 5801 5799 5797 5795 5793 5790 5786 5781 5778 5771 5765
5718 5722 5727 5732 5736 5740 5745 5749 5753 5758 5761 5765 5770 5774 5777 5778 5780 5783 5785 5791 5795 5795 5797 5798 5799 5799 5800 5801 5801 5801 5801 5801 5800 5798 5797 5795 5794 5794 5790 5787 5785 5782 5778 5774 5770 5765 5757
5697 5703 5709 5716 5721 5724 5729 5733 5738 5741 5746 5750 5755 5759 5764 5765 5768 5770 5775 5781 5785 5786 5787 5789 5789 5790 5791 5792 5793 5792 5793 5792 5792 5790 5789 5788 5786 5784 5782 5779 5777 5775 5770 5766 5761 5758 5751
5674 5681 5690 5696 5704 5710 5715 5720 5723 5726 5730 5735 5739 5745 5749 5751 5753 5759 5764 5768 5771 5775 5777 5779 5780 5781 5783 5783 5783 5784 5784 5784 5783 5782 5780 5780 5778 5775 5773 5771 5768 5766 5762 5756 5750 5746 5744
5647 5659 5668 5677 5685 5693 5699 5705 5710 5714 5717 5720 5726 5730 5735 5738 5744 5747 5751 5755 5759 5763 5766 5768 5770 5771 5773 5773 5774 5774 5774 5774 5774 5772 5771 5770 5769 5767 5764 5760 5757 5756 5753 5748 5742 5737 5730
5617 5632 5643 5654 5663 5675 5682 5689 5694 5699 5703 5707 5710 5717 5721 5726 5732 5735 5738 5742 5748 5752 5753 5756 5759 5762 5762 5762 5764 5764 5764 5764 5764 5762 5761 5760 5759 5756 5756 5751 5747 5746 5742 5736 5730 5726 5719
5588 5601 5617 5631 5644 5655 5663 5670 5675 5683 5687 5692 5697 5704 5708 5714 5719 5721 5723 5733 5737 5739 5743 5746 5749 5749 5749 5753 5754 5755 5753 5754 5754 5753 5751 5749 5747 5745 5746 5741 5736 5737 5733 5728 5721 5716 5709
5559 5574 5589 5604 5619 5635 5646 5652 5660 5664 5671 5677 5683 5688 5692 5699 5705 5708 5715 5723 5726 5727 5729 5734 5736 5736 5739 5742 5741 5742 5743 5743 5743 5742 5741 5739 5736 5732 5730 5731 5727 5726 5724 5718 5710 5705 5700
5536 5547 5563 5578 5595 5611 5627 5634 5640 5646 5654 5662 5668 5672 5676 5684 5690 5697 5703 5707 5711 5716 5715 5722 5722 5724 5729 5728 5729 5729 5731 5732 5731 5732 5730 5729 5726 5721 5717 5716 5712 5712 5711 5704 5698 5693 5687
5513 5523 5537 5553 5569 5587 5606 5615 5622 5627 5636 5644 5651 5657 5661 5668 5677 5681 5689 5694 5696 5700 5704 5709 5711 5715 5714 5715 5716 5716 5718 5718 5720 5718 5720 5718 5714 5710 5706 5704 5701 5703 5698 5690 5683 5683 5674
5490 5500 5515 5529 5547 5561 5580 5596 5604 5610 5617 5626 5635 5642 5645 5652 5663 5672 5673 5679 5684 5689 5693 5696 5699 5701 5702 5703 5704 5703 5705 5706 5705 5706 5708 5706 5703 5700 5696 5691 5686 5686 5682 5675 5671 5670 5662
5468 5477 5491 5507 5524 5540 5556 5574 5587 5595 5600 5607 5616 5626 5629 5637 5649 5657 5661 5667 5672 5675 5679 5683 5687 5687 5689 5691 5693 5692 5694 5694 5693 5694 5696 5693 5691 5688 5683 5677 5678 5677 5670 5664 5660 5658 5649
5453 5461 5470 5485 5503 5520 5535 5551 5567 5580 5584 5589 5599 5610 5616 5622 5634 5640 5647 5652 5657 5662 5667 5673 5673 5672 5677 5679 5681 5682 5681 5681 5681 5684 5683 5682 5676 5675 5670 5666 5664 5663 5656 5652 5647 5641 5636
5439 5446 5453 5464 5481 5501 5517 5530 5544 5560 5568 5575 5580 5593 5602 5603 5618 5624 5632 5638 5642 5646 5652 5654 5659 5662 5666 5665 5669 5668 5668 5667 5669 5669 5669 5666 5664 5661 5659 5655 5650 5647 5642 5638 5633 5629 5624